Location: ????????
(55.3975°N, 38.2844°E)
Time: 06:07:17
(UTC+00:00)

BlueWalker 3 - Pass Details

Date: 20 August 2024
Orbit: 476 x 487 km, 53.2° (Epoch: 08 September)

Event Time Altitude Azimuth Distance (km) Brightness Sun altitude
Exits shadow 00:56:44 - 275° (W) 1,996 4.6 -9.7°
Reaches altitude 10° 00:57:34 10° 270° (W) 1,686 4.1 -9.6°
Maximum altitude 01:00:58 31° 207° (SSW) 882 2.7 -9.2°
Drops below altitude 10° 01:04:21 10° 144° (SE) 1,682 4.6 -8.9°
Sets 01:06:40 0° 134° (SE) 2,561 5.7 -8.6°
